Location: Dimsdale
(55.1333°N, 118.9833°W)
Time: 15:18:21
(UTC+00:00)

PCSat - Pass Details

Date: 11 December 2023
Orbit: 784 x 792 km, 67.0° (Epoch: 04 March)

Event Time Altitude Azimuth Distance (km) Brightness Sun altitude
Exits shadow 12:47:26 38° 3° (N) 1,202 10.4 -27.4°
Drops below altitude 10° 12:51:19 10° 38° (NE) 2,364 12.4 -26.9°
Sets 12:53:51 0° 45° (NE) 3,297 13.4 -26.5°
